sat.trackr.live / text

‹ back to catalog

STARLINK-11654 [DTC]

NORAD 63265 · 2025-053A

PAYLOAD ACTIVE UNKNOWN

§ Identity

Operator
Country
US
Launch date
2025-03-15
Launch site
AFETR
Launch vehicle
Mass (kg)
RCS (m²)

Purposes: comms

External: N2YO · Heavens-Above · Gunter

§ Orbital elements

Epoch: 2026-05-24T22:47:40.915968Z

Period
91.66 min
Inclination
43.0030°
Eccentricity
0.0002807
Mean motion
15.71027448 rev/d
Perigee alt
354.1 km
Apogee alt
357.8 km
Semi-major
6,734.1 km
B*
1.5080e-3
RAAN
12.5204°
Arg perigee
282.6592°
Mean anomaly
77.3962°
Rev number
6,966

§ Raw data

STARLINK-11654 [DTC]1 63265U 25053A   26144.94977912  .00199332  00000+0  15080-2 0  99942 63265  43.0030  12.5204 0002807 282.6592  77.3962 15.71027448 69669

JSON: /api/v1/satellites/63265 · /tle

For live sub-satellite position, see the globe view (requires WebGL).

§ Visibility from observer

Set your observer location to see the next 7 days of passes ≥ 10°. The values pass through the URL so the page stays shareable.

No JS? Fill the form by hand. The geolocation button needs JavaScript.